Starlink 6147

operational
NORAD ID: 57120 Int'l Des: 2023-090 Owner: SPXS Country: US Constellation: starlink
LEOCIRCULAR

About Starlink 6147

Description loading...

Live Position

Loading 3D Globe...

Upcoming Passes

Altitude History

Altitude vs Time

uPlot chart will show altitude changes over time

Two-Line Element Set

1 57120U 23090V 25303.18829607 .00000449 00000-0 48306-4 0 9995
2 57120 43.0065 263.6687 0001126 265.7453 94.3261 15.02538015130789
Epoch: Oct 30, 2025 • Age: 17 hours

Current Status

Altitude 563.5 km
Velocity 7.58 km/s
Sub-Earth Point -21.14°S, 103.58°E
Launch Date Jun 23, 2023
Age 2.3 years
Type internet

Technical Details

Classification Payload
Mass 305.00 kg
Dry Mass 290.00 kg
Total Mass 305.00 kg
Length 0.20 m
Diameter 2.80 m
Span 9.00 m
Shape Box + pan
Manufacturer SPXS
Bus Type Starlink
Phase Status In Orbit
Owner/State SPXS/US

Large Constellations

Loading constellations...